Regional Weather Roundup
Issued by NWS

Home | Current Version | Previous Version | Graphics & Text | Print | Product List | Glossary On
Versions: 1 2 3 4 5 6 7 8 9 10 11 12 13 14 15 16 17 18 19 20 21 22 23 24 25 26 27 28 29 30 31 32 33 34 35 36 37 38 39 40 41 42 43 44 45 46 47 48 49 50
000
ASUS43 KIND 222159
RWRIN

WEATHER ROUNDUP FOR INDIANA
NATIONAL WEATHER SERVICE INDIANAPOLIS IN
600 PM EDT TUE JUL 22 2014

NOTE: "FAIR" INDICATES FEW OR NO CLOUDS BELOW 12,000 FEET WITH NO
SIGNIFICANT WEATHER AND/OR OBSTRUCTIONS TO VISIBILITY.

* - STATION DOES NOT REPORT WEATHER SUCH AS PRECIPITATION OR FOG.

+ - STATION NOT QUALITY CONTROLLED BY THE NATIONAL WEATHER SERVICE.
    USE DATA WITH CAUTION...ESPECIALLY DEWPOINT AND RELATIVE
    HUMIDITY OBSERVATIONS.

INZ001>003-010>013-019-020-222300-
NORTHWEST INDIANA

CITY           SKY/WX    TMP DP  RH WIND       PRES   REMARKS
GARY /AIRPORT/ PTSUNNY   90  72  55 SW14      29.97R HX  96
KNOX *+        SUNNY     86  68  55 SW12G18   29.96F
MONTICELLO +   MOSUNNY   85  71  63 S10       30.00S
RENSSELAER +   MOSUNNY   82  73  74 S13G18    29.99S
VALPARAISO     MOSUNNY   86  70  58 S14       29.98S

$$

LMZ046-743>745-222300-
SOUTHERN LAKE MICHIGAN

STATION/POSITION TIME  TEMP WIND        PRES
                       AIR  DIR/SP/G
                 (UTC) (F)  (DEG/KT/KT) (MB)
BURNS HARBOR     2100   85  200/ 16/ 21 1014.6S
MICHIGAN CITY    2100   84  180/ 16/ 21   N/A

$$

INZ004-005-014>016-021>024-222300-
NORTH CENTRAL INDIANA

CITY           SKY/WX    TMP DP  RH WIND       PRES   REMARKS
GOSHEN         SUNNY     88  68  51 SW13      29.98F
SOUTH BEND     SUNNY     88  67  49 S15       29.97F
WARSAW +       SUNNY     86  68  54 SW8       30.00F

$$

INZ006>009-017-018-025>027-222300-
NORTHEAST INDIANA

CITY           SKY/WX    TMP DP  RH WIND       PRES   REMARKS
ANGOLA *+      SUNNY     88  68  51 SW12      30.00F
FORT WAYNE     MOSUNNY   89  65  44 SW14      30.01F

$$

INZ028-029-035-036-043>045-051>053-222300-
WEST CENTRAL INDIANA

CITY           SKY/WX    TMP DP  RH WIND       PRES   REMARKS
GREENCASTLE +  MOSUNNY   82  70  65 S7        30.04F
LAFAYETTE      MOSUNNY   84  68  58 S13       30.00S
TERRE HAUTE    SUNNY     86  69  56 S12       30.02F

$$

INZ030>032-037>040-046>048-054>057-064-065-222300-
CENTRAL INDIANA

CITY           SKY/WX    TMP DP  RH WIND       PRES   REMARKS
COLUMBUS       SUNNY     86  64  48 W8        30.04F
INDIANAPOLIS   MOSUNNY   86  67  52 SW13      30.03F
-EAGLE CREEK   SUNNY     85  66  53 SW7       30.03F
KOKOMO *+      SUNNY     88  68  51 SW13      30.01F
MT COMFORT *+  SUNNY     88  64  45 W10       30.04F
SHELBYVILLE    SUNNY     89  66  46 SW9       30.03F
ZIONSVILLE +   SUNNY     86  65  49 SW10      30.04F

$$

INZ033-034-041-042-049-050-058-059-222300-
EAST CENTRAL INDIANA

CITY           SKY/WX    TMP DP  RH WIND       PRES   REMARKS
MUNCIE         SUNNY     87  64  46 SW10      30.03F

$$

INZ060-061-067>069-081>083-085>088-222300-
SOUTHWEST INDIANA

CITY           SKY/WX    TMP DP  RH WIND       PRES   REMARKS
EVANSVILLE     SUNNY     90  67  46 W8        30.03F
HUNTINGBURG *+ SUNNY     90  68  48 W7        30.04S

$$

INZ062-063-066-070>080-084-089>092-222300-
SOUTH CENTRAL AND SOUTHEAST INDIANA

CITY           SKY/WX    TMP DP  RH WIND       PRES   REMARKS
BLOOMINGTON    SUNNY     86  68  54 W6        30.05F
SEYMOUR +      SUNNY     86  50  28 W3        30.03

$$



USA.gov is the U.S. government's official web portal to all federal, state and local government web resources and services.